Flag for Germany Weather past 2 weeks in Westerstede, Lower Saxony, Germany

Now
34 °F

Snow flurries. Partly cloudy.


Feels Like: 27 °F
Forecast: 29 / 37 °F
Wind: 8 mph from West

Location: Wittmundhaven

Current Time: Feb 2, 2015 at 3:47:55 AM

Latest Report: Feb 2, 2015 at 2:20 AM


Visibility: 5 mi

Pressure: 29.36 "Hg

Humidity: 87%

Dew point: 30 °F

Location of WesterstedeLocation

Historic Weather in Westerstede — Graph

°F

Westerstede temperature yesterday

Maximum temperature yesterday: 34 °F (at 12:20 AM)
Minimum temperature yesterday: 30 °F (at 5:20 AM)
Average temperature yesterday: 32 °F

Past Weeks' High & Low Weather Summary

 TemperatureHumidityPressure
High45 °F (Jan 27, 1:20 PM)100% (Jan 18, 9:20 PM)30.33 "Hg (Jan 18, 9:20 PM)
Low19 °F (Jan 23, 5:20 AM)70% (Jan 30, 2:20 PM)28.71 "Hg (Jan 29, 11:20 PM)
Average34 °F93%29.70 "Hg
* Reported Jan 18 2:20 AM — Feb 2 2:20 AM, Westerstede, Weather by CustomWeather, © 2014

Note: Actual official high and low records may vary slightly from our data, if they occured in-between our weather recording intervals... More about our weather records

Advertising

Westerstede weather history for previous 24 hours

 ConditionsComfort  
Time TempWeatherWind HumidityBarometerVisibility
2:20 AM
Feb 2
34 °FSnow flurries. Partly cloudy.8 mph87%29.36 "Hg5 mi
1:20 AM34 °FPassing clouds.7 mph81%29.33 "HgN/A
12:20 AM34 °FPassing clouds.6 mph81%29.33 "HgN/A
11:20 PM
Feb 1
34 °FPassing clouds.7 mph81%29.33 "HgN/A
10:20 PM34 °FPassing clouds.8 mph87%29.30 "HgN/A
9:20 PM32 °FPassing clouds.5 mph93%29.30 "HgN/A
8:20 PM34 °FPassing clouds.7 mph93%29.30 "HgN/A
7:20 PM34 °FFog.6 mph93%29.27 "Hg2 mi
6:20 PM34 °FPassing clouds.7 mph100%29.27 "Hg4 mi
5:20 PM34 °FFog.9 mph100%29.24 "Hg1 mi
4:20 PM34 °FFog.9 mph100%29.24 "Hg1 mi
3:55 PM34 °FFog.10 mph93%29.24 "Hg1 mi
3:20 PM32 °FIce fog.10 mph100%29.24 "Hg1 mi
2:20 PM32 °FFog.8 mph100%29.24 "Hg1 mi
1:20 PM32 °FIce fog.9 mph100%29.21 "Hg0 mi
12:20 PM32 °FIce fog.10 mph93%29.21 "Hg0 mi
11:20 AM30 °FIce fog.8 mph100%29.21 "Hg0 mi
10:20 AM30 °FIce fog.8 mph100%29.18 "Hg0 mi
9:20 AM30 °FIce fog.8 mph100%29.15 "Hg0 mi
8:20 AM30 °FIce fog.8 mph100%29.15 "Hg0 mi
7:20 AM30 °FIce fog.7 mph100%29.12 "Hg0 mi
6:20 AM30 °FIce fog.8 mph100%29.09 "Hg0 mi
5:20 AM30 °FIce fog.8 mph100%29.09 "Hg0 mi
4:49 AM32 °FIce fog.8 mph93%29.09 "Hg1 mi
4:20 AM32 °FIce fog.7 mph93%29.06 "Hg1 mi
4:02 AM32 °FIce fog.7 mph93%29.06 "Hg2 mi
3:50 AM32 °FIce fog.7 mph100%29.06 "Hg2 mi
3:20 AM32 °FIce fog.5 mph100%29.06 "Hg3 mi
Weather by CustomWeather, © 2014

See weather overviewHow to use our weather pages